Wind_Speed
56 58 54 49 45 43 40 39 41 40 37 36 36 37 40 40 39 35 33 34 35 39 43 45 46 47 47 43 38 35 33 31 32 31 30 28 24 20 19 21 24 25 26 27 28 29 30 32 34 35 36 38 39 40 41 41 40 40 40 39 36 33 31 31 31 31 30 28 24 23 23 23 22 22 23 24 25 27 29 30 30 30 30 31 32
56 57 56 50 45 43 41 41 44 43 37 35 35 36 38 40 39 37 35 35 35 35 38 42 43 44 45 43 41 40 39 37 36 34 31 29 26 22 20 20 22 25 27 29 31 33 34 34 36 37 37 38 40 40 40 39 39 39 38 36 33 32 31 31 31 30 29 26 24 24 24 24 25 25 26 27 28 29 30 30 31 31 32 32 33
56 57 56 53 47 45 44 45 48 47 41 37 37 37 37 38 38 37 35 35 36 35 34 35 37 38 39 40 40 42 42 39 36 33 30 28 25 22 20 20 21 23 26 28 30 32 34 34 35 36 36 38 38 38 38 37 37 36 34 31 30 30 30 31 31 30 28 25 24 25 25 26 26 27 29 29 30 31 32 32 32 32 31 32 33
57 57 57 56 52 49 48 47 49 50 46 42 40 38 39 41 41 40 37 36 37 38 37 36 36 36 38 39 40 40 39 39 37 33 29 26 23 22 21 20 21 21 23 24 26 28 28 29 30 30 32 33 33 31 31 31 30 29 28 27 27 27 28 29 29 28 27 25 25 25 25 25 26 27 28 29 30 31 32 32 31 30 31 32 34
55 58 57 56 54 52 51 49 47 50 49 45 43 41 40 42 43 42 40 37 37 39 39 38 39 39 40 41 41 40 37 36 36 33 28 23 22 22 21 21 21 21 21 21 22 23 23 24 24 24 25 27 27 27 27 26 25 25 24 23 22 23 23 25 26 26 26 26 26 26 27 27 28 28 29 29 30 30 30 29 29 30 31 33 35
51 56 57 56 54 52 52 48 46 49 48 44 45 45 42 42 43 41 40 38 38 39 39 37 38 38 39 38 37 36 34 32 31 29 25 21 20 21 22 23 22 22 21 21 21 22 21 21 20 19 20 21 22 24 24 23 21 20 19 18 17 16 17 18 21 23 23 24 25 26 26 28 28 28 28 29 29 28 28 28 29 31 32 33 35
46 52 54 55 55 53 52 48 46 48 47 44 46 47 46 48 48 44 41 40 39 41 40 37 35 34 34 33 31 31 31 28 29 30 25 18 18 21 23 23 23 22 21 21 21 20 18 18 17 17 18 18 17 17 18 18 17 15 15 15 14 14 14 14 16 18 19 20 21 22 23 24 25 26 27 28 28 28 29 31 32 34 35 37 39
40 46 50 54 56 56 54 49 45 45 46 46 48 49 49 52 52 48 44 41 40 41 40 37 33 30 30 30 30 31 31 30 31 32 27 20 20 23 23 22 22 21 20 19 18 17 17 17 17 18 18 18 17 15 15 15 14 13 12 13 14 15 14 14 14 15 17 18 19 20 21 22 24 25 27 28 30 31 33 35 36 37 40 43 44
36 41 47 52 55 57 56 51 47 45 46 48 49 51 50 49 50 50 48 44 40 39 39 36 33 30 30 31 32 33 33 32 33 36 35 31 28 26 22 20 19 18 18 17 17 17 18 19 19 20 21 21 21 19 16 14 13 12 13 14 15 16 15 15 15 16 17 19 20 21 22 24 25 26 28 31 33 34 36 38 40 42 45 47 48
33 38 44 49 54 56 56 54 51 48 48 49 49 50 50 47 47 49 49 46 42 40 39 38 35 34 35 35 36 36 33 32 34 37 39 38 35 29 23 20 19 18 18 18 19 20 21 21 21 22 23 23 23 22 20 17 16 15 15 17 19 19 19 17 18 18 18 20 22 23 24 26 28 30 31 33 35 37 39 41 43 44 46 47 48
32 36 40 46 51 53 53 54 54 52 50 49 49 49 49 47 45 46 47 46 44 41 40 40 39 39 38 38 39 40 38 36 37 37 37 38 37 33 27 24 21 21 21 22 23 23 24 24 24 23 24 25 25 24 23 21 19 17 18 19 20 22 22 21 20 21 21 22 23 24 25 26 28 31 33 34 36 37 39 41 42 43 44 45 46
33 35 39 43 48 50 50 51 55 55 53 51 49 48 48 46 44 45 46 46 45 43 41 41 40 40 39 39 41 42 42 41 41 38 36 38 38 37 34 30 27 26 25 25 26 27 27 27 27 26 26 27 26 26 25 24 23 21 21 21 22 23 25 25 25 26 26 27 27 28 29 29 31 32 34 34 36 37 38 40 41 42 43 44 46
34 36 37 41 45 48 47 48 52 56 57 55 52 49 47 46 44 43 44 45 45 44 42 41 40 40 40 41 42 43 43 43 43 40 37 36 38 38 37 35 34 32 30 29 30 30 30 31 30 30 30 29 28 27 26 26 26 26 26 26 26 27 28 29 30 30 31 31 32 33 34 34 35 36 37 37 38 39 40 42 43 44 45 46 48
37 38 38 39 42 45 46 47 50 54 58 59 57 53 49 47 46 44 44 45 45 45 44 42 41 40 40 40 41 42 43 43 42 40 38 35 36 37 36 35 35 35 34 33 33 32 32 33 33 33 32 31 30 29 28 29 29 30 32 32 32 33 33 34 35 35 36 36 36 37 38 39 40 40 41 41 42 43 44 46 47 48 49 51 52
41 42 41 40 42 44 46 48 51 53 56 59 60 58 53 49 48 47 46 47 48 48 47 45 43 42 41 40 39 39 40 41 40 40 40 37 36 37 37 36 36 37 36 36 35 35 35 35 35 35 35 34 33 32 32 32 33 35 37 39 41 40 39 39 39 40 41 41 41 42 43 44 45 45 46 46 47 48 49 50 51 52 53 55 56
45 46 45 43 43 44 46 50 53 54 55 56 58 59 58 55 52 50 49 49 50 51 51 49 48 46 44 42 41 40 40 41 40 39 40 39 39 39 39 38 38 38 38 37 38 38 39 39 39 39 39 38 38 37 36 36 37 39 41 44 46 45 44 44 45 45 45 45 46 47 48 49 50 51 51 52 52 53 54 55 56 56 57 58 59
48 50 50 48 46 45 45 48 52 55 56 55 55 57 58 58 56 54 53 52 52 53 53 52 51 49 48 47 46 45 44 44 43 42 42 42 43 43 43 43 42 41 41 41 41 41 42 42 42 42 42 42 42 41 41 41 42 44 45 46 48 48 48 49 49 48 48 48 50 51 52 53 54 55 56 57 57 58 59 59 60 60 60 61 62
50 53 55 53 50 48 47 47 50 54 56 57 56 57 58 59 59 59 58 57 56 56 55 55 54 52 51 50 49 49 49 48 47 46 46 46 47 47 46 45 45 45 45 46 46 46 46 45 45 45 44 45 45 45 46 47 47 47 48 48 49 50 51 52 52 51 51 52 53 54 55 57 57 59 61 61 62 63 64 64 64 64 64 64 65
51 55 58 58 55 53 51 49 49 51 54 57 58 59 59 59 59 60 61 61 61 59 57 56 56 54 53 51 50 49 50 50 50 49 49 50 50 50 48 46 46 47 48 49 49 49 49 48 47 48 48 48 49 50 51 51 50 50 51 52 52 53 53 54 54 54 55 56 57 58 59 60 61 62 64 64 65 67 68 68 68 68 67 67 67
52 55 59 62 61 58 56 54 52 51 53 56 58 59 60 60 59 59 60 62 63 62 59 56 53 52 50 49 49 48 48 49 50 50 51 52 52 52 51 49 49 49 49 50 51 51 51 51 50 50 51 51 52 53 54 54 54 54 55 56 56 56 56 57 57 58 58 60 61 62 63 63 64 65 67 68 69 70 71 72 71 71 70 70 70
53 56 59 63 65 64 61 59 58 56 55 56 58 60 61 61 61 61 61 62 63 63 62 59 54 51 49 48 49 49 48 49 49 48 49 50 51 52 52 51 51 51 52 52 53 53 53 53 53 53 54 54 55 56 57 58 59 59 59 59 59 59 59 60 60 61 62 63 64 65 66 67 68 69 70 71 72 74 75 75 74 73 73 72 72
55 56 59 62 66 68 66 64 63 62 59 58 59 61 62 63 63 63 63 63 63 63 63 62 59 56 54 52 50 50 49 50 49 47 47 49 51 52 52 52 53 53 54 56 57 58 59 59 59 60 60 61 62 62 63 64 63 63 62 62 61 61 62 62 63 64 65 65 66 68 69 70 71 72 73 74 76 77 77 77 76 76 75 76 76
58 58 59 62 65 69 70 69 68 67 66 63 61 61 62 64 65 66 65 64 64 63 63 63 63 62 60 57 54 53 53 53 51 50 50 51 52 53 54 54 53 54 55 57 59 61 63 64 64 64 64 65 65 65 65 65 64 64 64 63 63 63 64 65 65 66 67 68 69 71 72 73 74 75 76 77 79 79 79 78 78 78 79 80 80
62 61 61 62 64 67 71 72 72 71 71 69 67 64 62 63 65 68 69 68 67 66 65 64 64 64 64 62 60 58 58 57 56 55 55 55 55 55 55 54 53 54 55 57 58 59 60 61 62 62 62 64 65 65 65 65 64 65 65 65 65 66 67 67 68 69 70 72 73 74 75 76 77 78 79 81 81 81 81 80 80 81 82 83 83
65 64 63 63 64 66 69 72 74 75 74 74 73 70 67 65 64 66 69 72 72 71 69 67 66 66 66 67 66 65 63 60 59 59 61 62 62 61 59 57 56 56 57 59 60 60 60 61 62 63 64 66 68 70 70 69 68 69 69 69 70 71 71 71 72 73 74 75 76 77 78 79 80 81 82 83 83 83 83 83 83 84 85 86 88
66 67 66 65 65 66 68 71 74 76 77 77 77 76 74 71 68 66 66 70 73 74 74 72 70 69 68 69 70 70 69 66 64 64 65 66 68 69 68 66 66 66 66 67 67 67 67 67 69 71 72 73 74 75 76 75 75 75 75 75 75 75 75 75 75 76 77 79 80 80 81 82 83 84 85 85 86 86 86 87 87 88 90 91 93
67 68 68 67 67 66 67 69 72 75 78 79 80 80 79 77 75 71 68 67 70 74 76 76 75 73 72 73 72 73 74 74 72 71 71 70 71 73 74 74 74 75 75 75 76 75 74 74 76 79 80 80 80 80 80 80 80 79 79 79 79 79 79 79 80 81 82 83 83 84 84 85 86 87 88 88 89 89 90 91 92 93 95 96 96
67 68 69 69 69 68 68 69 71 74 76 79 81 82 83 82 80 78 75 71 69 71 74 77 79 78 78 78 77 78 79 81 81 81 80 78 77 77 78 79 79 80 80 81 82 82 81 81 83 85 85 84 83 83 83 82 82 82 82 81 81 82 83 83 84 85 86 86 87 87 88 88 89 90 91 91 92 93 94 95 96 97 98 99 99
67 69 70 70 70 70 69 69 71 73 75 78 80 82 84 85 84 83 81 78 75 72 72 75 79 81 82 83 83 84 84 85 86 87 87 86 84 84 83 83 82 82 82 83 83 83 84 85 86 86 86 84 83 84 84 84 84 84 84 84 84 85 86 86 87 88 89 89 90 90 91 91 92 93 94 95 95 96 97 98 99 100 100 100 100
68 69 70 71 71 71 71 70 70 72 74 77 79 81 83 85 86 86 85 84 81 78 75 74 76 80 84 86 88 89 89 89 89 89 89 88 88 87 86 86 85 84 83 83 83 83 83 85 85 85 85 85 85 85 85 85 86 87 88 88 88 89 89 89 90 91 92 92 92 93 93 93 94 95 96 97 98 99 100 101 101 101 101 101 101
68 69 70 71 72 73 72 72 71 72 73 76 78 80 82 84 85 87 87 86 85 84 82 79 78 78 81 85 89 91 92 92 92 92 91 90 89 88 88 87 87 87 87 87 87 87 87 87 88 88 87 87 87 86 86 87 89 90 91 91 92 92 92 92 93 94 95 95 95 95 96 96 97 98 99 100 101 101 102 102 102 102 102 102 103
69 69 69 70 71 72 73 72 72 73 74 75 77 79 81 83 84 86 87 88 88 87 86 85 83 82 81 83 86 90 92 93 93 94 93 93 92 92 91 90 90 90 91 91 91 91 91 92 92 91 90 89 89 89 89 90 91 93 93 94 94 95 95 95 96 97 97 97 98 98 99 99 100 101 101 101 102 102 102 103 103 103 104 104 104
69 69 69 69 70 71 71 72 72 73 74 75 77 78 80 82 83 85 87 88 89 89 89 89 88 87 86 85 86 88 90 92 93 94 94 94 94 94 94 93 93 93 94 94 94 94 94 94 94 94 93 93 92 92 92 92 94 94 95 96 96 97 98 98 98 98 98 99 99 100 100 101 101 102 102 102 103 104 104 105 105 106 106 106 107
68 69 70 70 70 70 70 71 72 73 74 76 77 79 80 82 83 84 85 87 89 90 91 91 92 91 91 90 89 89 90 91 92 93 94 95 95 95 95 95 95 95 95 96 96 96 96 96 96 95 95 95 95 94 94 94 95 96 96 97 97 98 99 99 100 100 99 100 100 100 101 102 103 103 104 105 105 105 106 106 106 107 108 109 109
65 67 69 70 70 70 70 70 70 72 73 75 77 79 81 82 83 84 85 86 87 89 90 92 93 93 93 93 93 93 93 93 93 94 94 95 95 95 96 96 96 96 96 96 97 97 96 96 95 95 95 95 95 95 95 95 96 96 97 97 98 99 99 100 100 100 101 101 101 102 103 104 104 104 104 104 104 105 105 106 107 109 110 111 112
61 64 66 68 69 70 70 70 70 71 72 74 76 78 80 82 84 84 85 86 87 88 89 90 92 93 94 95 95 95 96 96 96 96 96 96 96 96 96 95 96 96 96 96 97 97 97 96 96 95 95 95 95 95 95 95 96 96 97 98 98 99 100 100 100 101 101 101 102 102 103 103 103 103 103 104 105 106 107 108 109 111 112 113 114
58 60 63 65 66 67 69 70 70 71 72 73 75 77 79 82 84 85 85 86 87 87 88 89 90 92 93 95 95 96 97 97 98 98 98 98 98 97 97 97 96 96 96 97 97 97 97 97 97 96 96 96 96 96 96 97 97 97 98 98 99 99 100 100 100 101 101 101 102 102 103 103 104 104 105 106 107 108 109 110 111 112 113 114 115
55 57 59 61 63 65 66 68 69 71 72 73 75 77 79 81 83 85 86 86 87 87 88 88 89 91 92 93 95 96 96 97 98 98 98 99 99 99 98 98 98 98 97 97 97 97 97 97 97 97 97 97 97 97 97 97 98 98 98 99 99 99 100 100 101 101 101 102 103 103 104 105 106 106 107 108 109 110 111 112 113 114 115 115 116
52 54 56 58 60 62 64 66 68 69 71 73 75 77 79 81 82 84 86 86 87 88 88 88 89 90 91 93 94 95 96 96 97 98 98 98 98 99 99 99 98 98 98 98 98 97 97 97 97 97 97 97 97 97 97 97 98 98 98 99 99 100 101 101 102 102 103 104 104 105 106 107 108 108 109 110 111 112 113 114 115 115 116 117 117
50 51 53 55 57 59 61 63 65 67 69 71 74 76 79 81 83 84 86 87 87 88 88 89 89 90 91 92 93 94 95 96 97 98 98 98 98 98 98 98 98 98 98 98 97 97 97 97 97 97 97 97 97 97 98 98 98 99 99 100 100 101 102 103 103 104 105 105 106 107 108 109 110 111 111 112 113 114 115 115 116 117 118 118 119
50 50 50 51 54 56 59 61 63 65 67 69 71 74 76 79 82 84 86 87 88 89 89 89 90 90 91 92 93 94 95 96 98 98 99 98 98 98 98 98 98 98 97 97 97 97 97 97 97 97 97 97 97 97 98 98 99 99 100 101 102 103 103 104 105 106 106 107 108 109 110 111 111 112 113 114 115 116 117 117 118 119 120 120 121
52 52 51 50 50 52 55 58 61 63 65 66 68 70 73 75 78 82 85 87 89 90 90 91 91 91 92 92 93 94 95 96 98 99 99 99 99 99 99 99 99 98 98 98 98 98 98 98 98 99 99 100 100 100 100 100 100 101 101 102 103 103 104 105 106 107 108 109 110 111 112 112 113 114 115 116 117 118 119 120 120 121 122 123 123
52 53 53 52 51 51 51 53 56 60 62 64 66 68 69 72 74 77 80 84 87 89 90 91 92 93 93 93 94 94 95 96 98 99 99 100 100 101 101 101 101 101 100 100 100 100 100 99 99 100 100 101 101 102 103 103 104 104 104 105 105 106 107 108 109 109 110 111 112 113 114 115 116 116 117 118 119 120 121 122 122 123 124 124 124
49 51 52 53 53 53 52 52 52 54 57 61 63 66 67 69 71 73 76 79 82 84 87 89 91 93 94 94 95 95 95 96 97 98 99 100 100 101 101 102 102 103 103 103 103 102 102 102 102 102 102 102 102 103 104 105 106 107 107 108 109 110 110 111 112 113 114 114 115 116 117 117 118 119 120 120 121 122 122 123 123 123 123 123 123
46 48 49 51 52 53 53 53 53 52 53 55 58 62 64 66 68 70 73 75 77 80 82 85 87 90 92 94 95 96 96 97 98 98 99 100 100 101 102 102 103 103 103 104 104 104 104 104 104 104 104 104 104 104 104 105 106 107 108 109 110 111 112 113 114 115 116 116 117 118 118 119 120 120 121 121 122 122 122 122 122 122 122 122 121
44 45 46 47 49 50 51 53 53 53 53 53 54 56 59 62 65 68 70 72 74 76 78 81 83 85 87 90 92 94 96 97 98 99 99 100 101 101 102 102 103 103 104 104 105 105 105 106 106 107 107 107 107 107 107 107 108 108 109 110 110 111 112 113 114 115 115 116 117 118 118 119 119 120 120 120 120 120 120 120 120 120 120 120 119
42 43 44 45 46 47 48 49 51 52 53 54 54 54 55 57 60 64 67 69 71 73 75 77 79 81 83 85 87 90 92 94 96 98 99 100 101 102 102 103 103 103 104 104 105 106 106 107 107 108 108 109 109 110 110 110 111 111 111 112 112 113 113 114 114 115 115 116 116 117 117 117 118 118 118 119 119 119 119 119 119 119 119 118 118
38 41 43 44 45 45 46 46 48 49 50 51 53 54 54 55 56 59 62 65 68 70 72 74 76 77 79 81 83 85 87 89 91 94 96 98 100 101 102 103 103 104 104 105 105 106 107 107 108 109 109 110 110 111 112 112 113 113 114 114 115 115 115 116 116 116 116 117 117 117 117 117 118 118 118 118 118 118 118 118 118 118 117 116 114
34 36 39 41 43 44 45 45 45 46 48 49 50 51 52 54 55 56 57 59 62 65 68 71 73 75 76 78 80 81 83 85 86 88 90 93 95 97 99 100 102 103 104 105 106 106 107 108 108 109 110 111 111 112 113 113 114 114 115 116 116 116 117 117 117 117 117 117 118 118 118 118 118 118 118 118 118 117 117 116 116 114 112 109 105
31 33 35 37 39 41 43 43 43 44 45 47 48 49 50 51 52 53 54 55 57 59 63 66 69 71 73 75 77 78 80 81 83 84 86 87 89 91 93 95 97 99 101 103 104 105 106 107 108 109 110 111 111 112 113 113 114 115 115 116 116 117 117 117 117 117 117 117 117 117 117 117 117 117 117 116 116 114 113 111 108 105 101 98 94
32 31 32 34 36 38 40 42 42 42 42 43 45 47 47 48 49 50 51 52 53 54 57 60 63 66 69 71 73 75 77 78 80 81 83 84 85 87 88 90 92 94 96 98 100 101 103 105 106 107 108 109 110 111 112 112 113 114 114 115 115 116 116 116 116 116 116 116 115 115 115 114 114 113 112 110 109 106 104 101 98 95 91 88 85
Wind_Direction
223 219 219 220 219 218 220 223 224 227 231 233 233 233 235 240 245 249 249 246 244 246 249 252 256 259 262 264 267 275 284 287 287 293 299 298 291 280 270 265 259 251 247 248 251 253 254 255 257 260 264 267 270 273 275 279 281 281 281 281 280 279 280 279 279 279 280 281 278 273 272 272 271 268 266 266 266 267 268 269 270 272 275 278 280
225 220 217 217 217 217 219 224 226 227 229 232 235 237 236 238 245 249 247 243 242 244 247 251 254 258 260 262 265 273 282 286 287 291 294 294 289 281 272 266 261 255 250 248 249 250 252 254 257 261 266 269 271 274 276 277 278 277 278 279 277 277 279 279 278 279 279 278 276 273 271 271 269 268 267 267 267 267 268 269 270 273 276 278 280
224 220 216 215 217 217 218 223 226 227 230 232 236 239 238 240 245 248 246 243 243 245 248 250 253 255 259 262 266 271 278 282 286 290 293 291 286 280 275 269 264 259 256 254 253 254 255 257 260 264 268 270 272 274 276 276 275 275 276 276 276 277 277 276 277 277 276 274 271 269 268 268 268 268 268 268 267 267 267 269 271 274 278 280 281
223 219 215 215 218 220 221 224 226 228 231 233 237 241 242 243 246 248 247 246 248 250 251 253 256 258 261 265 269 271 274 278 283 288 291 290 283 278 276 273 269 264 261 260 259 259 260 262 264 265 266 267 269 271 274 275 274 274 275 275 276 277 276 275 274 274 273 271 269 266 265 266 266 268 269 269 268 267 267 270 274 277 281 282 284
224 219 217 217 219 220 223 225 227 229 231 234 238 241 243 245 247 249 249 249 252 254 256 257 259 262 265 267 268 270 273 279 281 282 289 294 284 278 277 274 271 268 264 263 262 262 264 265 266 264 262 264 266 269 272 272 272 275 277 278 279 279 278 276 273 272 270 269 267 264 263 265 266 268 269 268 267 267 270 273 277 281 283 285 288
226 222 220 219 219 219 221 224 228 230 230 233 237 239 240 242 244 248 251 253 255 257 259 260 262 265 266 265 266 266 269 275 275 275 287 298 291 282 279 275 272 269 265 263 263 264 264 262 260 259 261 266 271 272 270 269 271 275 279 281 281 279 277 275 272 271 271 270 270 269 267 266 267 268 268 268 269 270 273 276 279 281 284 288 292
229 225 222 221 218 216 219 223 227 231 231 231 236 238 238 239 241 246 251 256 258 260 262 263 263 263 261 260 261 262 262 266 268 271 281 300 303 292 282 277 274 269 264 262 260 258 255 252 254 259 267 276 284 282 275 271 270 273 279 282 282 281 279 277 275 275 277 278 278 276 274 270 270 270 270 270 271 273 275 277 278 280 285 291 294
232 226 222 221 218 216 218 222 225 230 231 231 234 237 239 241 242 245 250 256 259 261 263 262 260 257 256 256 257 258 258 260 264 268 272 285 303 301 289 279 274 267 260 255 250 246 246 250 258 267 275 283 291 294 292 286 279 278 283 286 288 290 288 283 281 281 282 282 282 281 280 277 275 273 272 273 274 276 277 277 278 282 287 291 293
237 228 222 219 217 216 219 221 222 227 230 231 235 239 241 244 244 245 250 255 257 259 260 259 254 247 247 251 253 256 258 259 263 267 267 270 283 291 288 279 270 262 255 249 244 245 250 256 265 274 282 288 292 297 302 305 302 296 290 288 292 296 295 288 285 284 284 284 283 281 280 278 277 274 274 275 276 277 278 279 281 284 287 290 291
241 234 226 221 218 218 221 222 223 227 229 231 235 240 243 245 245 245 249 252 255 256 257 256 250 242 241 246 251 254 256 258 263 267 269 272 276 278 276 274 268 259 254 251 250 252 256 262 269 278 285 291 293 295 298 302 306 303 294 289 292 295 295 288 283 282 284 286 285 283 282 280 279 277 277 277 277 278 279 281 283 285 287 289 289
243 240 233 225 221 220 223 225 226 229 230 231 234 238 242 244 245 245 247 250 251 252 251 252 252 249 247 247 249 252 255 258 262 266 270 275 277 275 270 267 266 264 262 259 259 260 262 266 272 279 285 289 291 293 294 296 298 299 296 292 290 290 292 290 284 281 283 285 285 285 286 285 283 282 282 281 281 281 281 283 285 286 288 288 290
239 239 238 232 227 225 227 230 231 231 232 231 232 236 240 242 244 246 247 248 249 249 248 250 251 251 250 249 249 252 256 258 262 266 269 271 273 274 272 268 266 268 269 267 265 264 266 268 272 277 282 286 288 290 291 292 292 293 292 291 288 288 289 290 287 284 284 284 284 285 286 288 287 287 287 286 286 286 286 287 289 290 290 291 292
233 234 236 236 233 231 231 234 235 235 235 233 233 235 238 240 242 244 245 247 247 246 245 246 247 248 249 250 252 254 257 259 262 265 267 267 268 270 270 269 270 271 271 271 269 266 267 270 272 275 279 283 285 286 287 288 288 288 287 286 286 285 284 285 286 286 286 287 287 287 288 290 291 291 292 291 291 290 290 290 291 291 292 293 294
230 227 230 232 234 235 234 234 236 236 237 236 235 235 236 238 240 241 242 242 242 242 242 243 245 247 249 251 253 256 258 260 261 262 264 264 263 264 266 267 269 270 272 274 272 267 267 270 271 273 276 278 280 282 283 283 284 285 285 285 284 283 282 283 283 284 285 288 290 291 291 292 294 295 295 295 294 293 293 292 292 293 293 294 296
229 224 225 226 228 232 234 234 234 235 237 238 237 236 235 235 236 237 238 238 238 238 240 242 244 245 248 250 253 255 257 259 261 262 262 261 260 261 263 264 267 269 271 273 272 270 271 273 273 273 274 275 275 276 278 280 282 283 285 286 288 289 287 285 283 283 285 288 290 291 292 293 294 295 296 296 296 296 295 295 295 296 296 297 298
230 225 224 224 223 226 230 232 233 234 235 237 237 236 236 235 234 233 233 235 236 237 238 241 244 245 246 248 251 253 257 260 261 261 261 260 258 260 262 263 265 267 268 269 270 270 272 274 274 273 272 273 273 273 273 276 280 282 283 286 289 291 290 288 287 287 288 288 288 289 291 293 294 294 294 295 296 297 297 298 298 299 299 299 298
231 226 224 224 223 222 225 229 232 234 235 235 235 235 235 235 235 233 232 233 235 236 237 239 242 244 246 248 250 253 257 261 264 264 263 261 259 260 263 265 265 266 266 268 270 270 270 272 273 271 270 270 270 270 271 275 278 280 281 282 285 287 288 289 290 289 287 286 286 288 290 292 292 293 293 294 295 297 299 300 300 301 300 300 299
233 229 226 225 224 223 223 225 229 233 235 236 235 234 235 235 236 236 236 235 236 237 238 240 242 243 245 249 251 253 256 259 263 265 266 266 265 265 266 266 266 266 267 268 270 271 271 270 270 268 268 267 268 269 271 274 276 277 277 278 280 283 285 286 288 288 286 284 285 286 287 289 290 290 291 293 294 296 299 301 301 301 301 300 300
235 232 229 228 226 224 224 224 226 229 233 236 237 236 235 235 235 236 238 238 238 239 239 241 243 245 247 251 253 255 257 259 261 263 265 266 268 269 268 267 267 268 268 269 270 270 270 269 266 265 265 265 267 269 271 273 275 275 276 278 279 281 282 283 285 286 286 285 285 285 285 286 287 288 290 292 293 296 299 300 300 300 300 300 299
240 236 232 231 229 227 225 225 226 226 228 231 235 236 236 235 234 235 236 238 239 239 240 241 243 246 249 251 252 255 257 258 258 260 263 266 268 269 269 268 268 269 269 269 269 269 268 267 265 264 263 264 266 269 271 274 275 277 278 278 280 281 282 283 284 284 284 285 285 286 286 286 287 287 289 291 293 295 297 298 299 300 300 299 299
243 240 236 233 232 231 228 226 227 228 228 228 230 233 235 235 234 234 235 236 238 240 240 241 241 242 245 247 250 253 256 256 257 260 263 265 268 269 269 269 269 269 267 266 266 265 265 265 264 264 264 265 267 269 272 275 277 278 280 280 281 282 283 283 284 284 284 285 285 285 286 287 288 289 290 291 293 294 295 297 298 300 300 299 299
245 243 240 237 235 233 232 229 228 228 229 230 230 230 232 234 235 235 235 236 237 238 240 241 240 240 241 244 249 251 251 252 254 256 257 259 262 265 266 266 267 267 266 264 263 262 262 263 263 264 265 266 268 269 272 274 277 279 281 282 282 283 283 283 284 284 284 285 285 286 287 288 289 290 290 291 292 293 294 296 298 299 299 299 299
247 245 243 241 238 236 234 233 231 229 230 231 232 232 232 232 233 235 236 236 237 237 239 240 241 242 242 243 246 248 248 248 249 249 249 251 255 258 261 262 264 265 266 267 266 266 266 266 267 268 268 269 270 271 273 275 278 280 281 282 282 282 283 283 283 284 284 285 285 286 287 288 289 289 290 290 291 293 294 296 297 298 298 299 300
247 246 244 243 241 239 237 235 234 232 231 232 233 234 234 234 233 234 235 236 237 238 239 239 240 243 243 242 243 245 248 250 250 249 247 247 249 251 255 257 259 262 265 267 268 268 268 268 269 270 271 272 273 274 276 278 279 280 280 281 281 282 282 283 283 284 284 285 285 286 287 288 288 289 290 291 292 293 295 296 297 297 298 299 300
248 247 245 244 243 242 241 239 237 235 234 233 234 235 236 236 235 235 235 235 236 238 238 239 239 240 241 241 241 242 244 248 250 249 247 246 246 247 249 250 251 255 258 261 262 264 265 266 267 268 269 271 274 276 278 280 280 281 281 281 282 282 282 283 284 284 284 285 286 286 287 288 289 290 290 291 292 294 295 296 297 297 298 299 299
249 247 246 245 244 243 243 242 241 239 237 236 236 236 237 237 237 237 236 236 236 236 237 237 238 239 240 241 242 242 243 244 245 246 247 247 246 247 248 249 249 251 254 256 258 260 262 264 266 267 268 270 273 275 278 281 282 282 282 283 284 284 284 284 284 284 284 285 286 287 288 289 290 291 292 293 294 295 296 296 297 297 298 298 298
250 248 247 246 245 244 243 244 243 242 240 239 238 238 238 239 239 239 239 238 237 236 236 236 237 238 239 240 242 242 242 242 242 243 246 247 248 249 250 251 252 254 256 257 259 261 263 264 265 267 269 272 274 276 278 280 282 283 284 284 285 286 286 286 286 286 286 287 288 289 290 291 292 292 293 294 295 295 296 296 296 296 297 298 299
251 249 247 246 246 244 244 244 245 244 243 242 240 239 239 240 240 241 241 240 239 238 237 236 236 237 238 240 242 242 242 243 243 244 245 247 249 251 252 253 255 257 258 260 262 263 264 264 265 268 271 274 275 276 277 279 281 282 283 284 285 285 285 286 286 287 288 289 290 290 291 291 292 292 292 293 294 294 294 295 296 297 298 300 301
251 249 248 247 246 245 244 244 245 245 245 244 243 242 241 241 241 242 242 242 241 240 239 238 237 237 237 239 241 243 244 245 246 247 248 249 251 252 254 256 258 259 260 261 262 263 264 264 265 267 270 272 273 274 275 277 278 279 280 281 282 282 283 284 285 285 286 287 288 289 289 290 290 291 291 292 293 294 294 295 296 298 299 301 303
251 249 248 247 246 245 244 244 244 245 246 246 245 244 243 243 242 243 243 243 243 243 242 240 239 238 238 239 241 243 245 246 247 249 250 251 252 253 255 256 258 259 260 261 261 262 263 263 264 266 268 269 271 272 274 275 276 277 278 279 280 280 281 282 283 284 285 286 287 287 288 289 289 290 291 292 292 293 295 296 297 299 300 301 302
252 250 249 248 247 247 246 244 243 244 245 246 246 245 245 244 244 243 244 244 244 244 244 243 241 240 240 240 241 242 244 246 248 249 250 252 253 253 254 255 256 257 258 259 260 261 261 263 264 266 267 269 270 272 272 273 274 275 277 278 279 280 280 281 282 283 284 285 286 287 287 288 289 289 290 292 293 294 295 297 298 299 300 300 301
254 253 251 249 248 248 247 247 245 244 244 245 246 246 246 245 245 244 244 245 245 245 245 245 244 243 242 241 241 242 244 246 247 249 250 251 252 253 254 255 256 257 258 259 260 261 262 263 265 266 268 269 269 270 270 271 272 274 275 276 277 278 279 280 281 283 284 285 285 286 287 288 289 290 291 292 293 294 295 296 296 297 298 299 301
255 254 254 252 250 249 249 248 247 247 246 246 246 246 246 246 246 246 245 245 245 246 246 246 246 245 244 243 243 243 244 245 246 248 249 251 252 253 253 254 256 257 258 259 259 260 261 262 264 265 266 267 267 268 269 270 271 272 274 275 277 278 279 280 281 282 283 284 285 286 287 288 289 290 291 292 292 293 294 295 296 298 299 301 302
255 255 255 254 253 252 250 249 248 248 248 247 246 246 246 246 246 246 246 246 246 246 246 246 246 246 246 245 245 244 244 245 246 247 248 250 251 252 253 253 254 255 256 258 259 260 261 262 263 264 265 266 267 268 268 269 270 271 272 274 275 277 278 280 281 282 283 283 284 285 286 287 288 289 290 291 292 294 295 296 297 299 300 300 301
255 255 255 255 255 254 252 251 249 247 247 247 247 247 246 246 246 246 246 247 247 246 246 246 246 246 247 247 247 247 246 246 247 247 248 249 251 252 253 254 254 255 256 257 258 260 261 262 263 264 265 266 267 268 268 269 270 271 272 273 274 276 277 278 279 280 281 282 283 284 285 286 288 289 290 291 292 293 294 295 296 296 297 298 299
257 256 255 254 254 254 253 252 251 248 247 246 247 247 247 246 246 246 246 247 247 247 247 247 247 246 246 247 247 247 248 248 248 249 249 250 251 252 253 254 255 256 256 257 258 259 261 262 262 263 264 265 266 267 268 269 270 271 272 273 274 275 276 277 278 279 280 281 282 283 285 286 287 288 289 289 290 291 292 293 294 295 295 296 297
258 257 256 255 254 254 253 252 251 249 247 246 245 246 246 246 246 246 246 246 247 247 247 247 247 247 247 247 247 247 248 249 249 249 250 251 251 252 253 254 255 256 257 258 259 260 261 262 262 263 264 264 265 266 267 268 269 270 271 272 273 274 275 276 276 278 279 280 281 282 283 284 285 286 287 287 288 289 290 291 292 293 294 295 296
260 258 257 257 256 254 253 252 251 250 248 247 245 245 245 245 246 246 247 247 247 247 247 247 248 248 248 248 248 248 248 248 249 250 250 251 251 252 253 254 255 256 257 258 259 260 260 261 262 263 263 264 265 265 266 267 268 269 269 270 271 272 273 274 275 276 277 278 279 280 282 283 284 285 286 286 287 288 290 291 292 293 294 295 297
261 260 259 258 257 256 254 253 252 251 249 247 246 245 244 244 245 245 246 247 247 248 248 248 247 248 248 249 249 249 249 249 249 250 250 251 251 252 253 254 255 256 257 258 259 259 260 261 262 263 263 264 265 265 266 267 268 268 269 270 271 272 273 274 275 276 277 278 279 280 281 282 283 284 285 286 287 288 290 291 292 293 294 295 296
263 261 259 258 258 257 256 255 254 252 251 249 248 246 245 245 244 245 245 246 246 247 248 248 248 248 248 248 249 249 250 250 250 250 250 251 251 252 253 254 254 255 256 257 258 259 260 260 261 262 263 264 265 266 266 267 268 268 269 270 271 271 272 273 274 275 277 278 279 280 281 282 283 284 285 286 288 289 290 291 292 293 294 295 296
270 266 262 259 257 257 256 256 255 254 253 251 250 248 247 246 245 245 245 245 246 246 247 247 248 248 248 248 249 249 249 250 251 251 251 251 252 252 253 254 254 255 256 257 258 258 259 260 260 261 261 262 263 264 265 266 267 268 269 270 271 271 272 273 274 275 276 278 279 280 281 282 283 284 285 286 287 288 289 290 291 292 293 294 295
273 272 269 265 261 258 256 255 255 255 255 253 252 251 249 248 247 246 246 246 246 246 246 246 247 247 248 248 248 249 249 250 250 251 252 252 253 253 253 254 254 255 255 256 257 258 258 259 260 260 260 261 262 262 263 264 265 266 267 268 269 271 272 273 274 275 276 277 278 279 280 281 282 283 284 285 286 287 288 289 290 292 293 294 295
272 272 272 271 268 264 260 257 255 254 254 254 254 253 252 251 249 248 248 247 246 246 246 246 246 247 247 247 248 248 249 249 250 251 251 252 253 253 254 254 254 255 255 256 256 257 258 259 259 260 260 261 261 262 263 263 264 264 265 266 267 268 270 271 272 273 274 275 276 277 278 280 281 282 283 284 285 286 288 289 290 291 292 293 294
271 271 271 271 271 270 267 263 259 256 254 253 254 254 253 252 251 251 250 249 249 248 247 247 247 247 247 247 248 248 248 249 249 250 251 251 252 252 253 254 255 255 256 256 256 257 258 258 259 260 260 261 261 262 263 263 264 264 265 266 267 267 268 269 270 272 273 274 275 276 278 279 280 281 282 283 285 286 287 288 289 291 292 293 294
273 272 270 270 270 270 269 268 266 263 259 255 253 253 253 253 253 252 252 251 250 250 249 249 248 248 247 247 248 248 248 248 249 250 250 251 252 252 253 253 254 255 256 256 257 257 258 258 259 260 260 261 262 262 263 263 264 265 265 266 267 267 268 269 270 271 272 274 275 276 277 279 280 281 282 283 285 286 287 288 290 291 292 293 295
277 275 273 271 270 269 269 268 268 267 265 262 258 255 253 252 252 253 253 252 252 251 251 251 250 249 249 248 248 248 248 248 249 249 250 251 251 252 253 254 254 255 255 256 257 257 258 259 259 260 261 261 262 263 263 264 265 265 266 267 268 268 269 270 271 272 273 274 275 276 278 279 280 281 283 284 285 286 288 289 290 291 293 294 295
280 279 277 275 273 272 270 269 268 267 266 265 263 260 257 254 252 251 252 252 252 252 252 252 251 251 251 251 250 249 249 249 249 249 250 251 251 252 253 254 254 255 256 256 257 257 258 259 259 260 261 262 263 263 264 265 266 266 267 268 269 270 271 271 272 273 274 275 276 278 279 280 281 282 283 285 286 287 288 290 291 292 293 295 296
283 282 280 279 277 275 273 272 270 269 268 266 264 263 262 259 256 253 252 251 252 252 252 252 252 252 252 252 252 252 251 251 250 250 250 251 251 252 253 253 254 255 255 256 257 257 258 259 259 260 261 262 263 263 264 265 266 267 268 269 270 271 271 272 273 274 275 277 278 279 280 281 282 283 284 286 287 288 289 290 291 293 294 295 296
284 283 282 281 280 278 277 275 273 271 270 269 267 265 263 262 260 258 255 253 252 252 252 252 252 252 252 253 253 253 253 253 253 252 252 252 252 252 253 254 254 255 255 256 257 257 258 259 259 260 261 262 262 263 264 265 266 267 268 269 270 271 272 273 274 275 276 277 278 280 281 282 283 284 285 286 287 288 289 290 291 292 293 294 295
290 286 283 282 281 279 278 277 275 273 272 271 270 268 266 265 263 261 260 257 255 253 252 252 252 253 253 253 253 253 254 254 254 254 254 254 254 254 254 254 254 255 255 256 257 257 258 259 259 260 261 262 263 264 264 265 266 267 268 269 270 271 272 273 274 276 277 278 279 280 281 282 283 284 285 286 287 288 289 290 291 292 293 294 295
299 294 289 286 283 281 280 279 277 275 273 272 271 270 269 268 266 265 263 261 259 257 255 253 253 253 253 253 253 253 253 254 254 255 255 255 255 255 255 255 256 256 256 257 257 258 258 259 260 261 261 262 263 264 265 266 266 267 268 269 270 271 273 274 275 276 277 278 279 280 281 282 283 284 285 286 287 288 289 290 291 292 293 294 294
Height
10583 10587 10591 10595 10600 10603 10606 10609 10612 10613 10614 10616 10618 10619 10619 10620 10621 10622 10624 10626 10627 10628 10629 10632 10634 10636 10637 10638 10639 10638 10638 10639 10639 10638 10637 10636 10635 10633 10633 10633 10633 10634 10635 10637 10638 10640 10641 10642 10642 10643 10643 10642 10641 10641 10640 10640 10639 10638 10638 10638 10638 10639 10639 10638 10638 10638 10638 10639 10639 10639 10639 10639 10639 10640 10640 10640 10640 10641 10641 10641 10640 10640 10640 10639 10639
10577 10581 10586 10591 10595 10598 10601 10604 10605 10607 10609 10611 10613 10614 10615 10616 10616 10617 10619 10621 10623 10624 10625 10627 10629 10631 10632 10634 10635 10634 10634 10634 10634 10634 10633 10632 10632 10630 10629 10629 10629 10630 10631 10632 10634 10635 10637 10638 10638 10639 10639 10637 10636 10635 10635 10635 10635 10634 10633 10633 10633 10634 10634 10633 10633 10634 10634 10635 10635 10635 10635 10636 10636 10636 10637 10637 10637 10638 10638 10637 10637 10636 10636 10636 10635
10571 10576 10581 10586 10590 10594 10596 10598 10598 10601 10604 10606 10607 10609 10610 10611 10611 10611 10614 10616 10618 10619 10620 10622 10624 10626 10627 10629 10630 10630 10630 10630 10630 10630 10629 10629 10628 10627 10626 10626 10626 10627 10627 10628 10629 10631 10632 10634 10635 10635 10634 10632 10631 10631 10631 10630 10630 10629 10629 10629 10629 10629 10629 10629 10629 10630 10630 10631 10632 10632 10632 10632 10633 10633 10633 10633 10634 10634 10633 10633 10633 10632 10632 10632 10631
10566 10571 10577 10582 10586 10589 10591 10593 10594 10597 10599 10600 10602 10604 10604 10605 10605 10606 10609 10612 10613 10614 10616 10618 10620 10621 10623 10624 10625 10626 10626 10626 10627 10627 10626 10625 10624 10624 10623 10623 10623 10623 10624 10625 10626 10627 10628 10629 10631 10631 10630 10627 10627 10628 10627 10626 10625 10624 10624 10625 10625 10625 10625 10625 10625 10626 10626 10627 10628 10628 10628 10628 10629 10629 10629 10629 10629 10629 10629 10628 10629 10629 10628 10628 10627
10561 10567 10572 10577 10581 10583 10586 10588 10590 10592 10594 10595 10597 10598 10598 10599 10600 10601 10604 10607 10608 10608 10611 10615 10617 10618 10618 10620 10621 10622 10622 10623 10624 10624 10623 10622 10621 10621 10620 10620 10620 10620 10621 10621 10622 10623 10624 10625 10626 10627 10626 10625 10625 10625 10624 10623 10621 10620 10620 10621 10621 10621 10621 10621 10621 10621 10622 10623 10623 10624 10624 10625 10625 10625 10625 10625 10625 10625 10624 10624 10625 10625 10624 10624 10623
10556 10561 10566 10571 10574 10578 10581 10583 10585 10587 10589 10591 10591 10592 10592 10593 10595 10597 10600 10602 10603 10603 10605 10610 10612 10613 10614 10615 10616 10617 10618 10619 10620 10621 10620 10619 10618 10618 10617 10617 10617 10617 10617 10618 10619 10619 10620 10621 10622 10623 10624 10623 10623 10621 10620 10619 10618 10617 10617 10617 10617 10617 10618 10618 10618 10618 10618 10619 10619 10620 10621 10621 10620 10621 10621 10621 10620 10620 10621 10621 10621 10620 10619 10619 10618
10550 10555 10560 10564 10568 10572 10575 10578 10580 10582 10584 10586 10587 10586 10586 10588 10591 10594 10596 10597 10597 10597 10600 10604 10607 10608 10609 10610 10612 10612 10614 10615 10616 10617 10617 10616 10615 10615 10615 10614 10614 10614 10614 10615 10615 10616 10617 10618 10619 10620 10620 10620 10619 10618 10616 10615 10614 10614 10614 10614 10614 10614 10615 10615 10615 10615 10615 10616 10616 10617 10617 10617 10617 10617 10617 10617 10617 10617 10617 10616 10616 10615 10614 10614 10613
10546 10550 10554 10558 10562 10566 10569 10573 10575 10577 10579 10581 10582 10580 10580 10584 10589 10591 10592 10592 10592 10592 10595 10598 10601 10603 10605 10606 10607 10607 10609 10610 10611 10612 10613 10612 10612 10612 10612 10612 10611 10611 10611 10612 10612 10613 10614 10615 10617 10617 10617 10616 10615 10614 10613 10612 10612 10611 10611 10611 10611 10612 10612 10612 10612 10612 10612 10612 10613 10613 10613 10613 10613 10613 10613 10613 10613 10613 10613 10612 10611 10610 10609 10608 10607
10541 10545 10548 10552 10556 10560 10563 10567 10570 10572 10573 10575 10576 10575 10576 10581 10585 10587 10587 10588 10588 10588 10590 10593 10595 10598 10600 10602 10602 10602 10603 10605 10606 10608 10609 10609 10609 10610 10610 10609 10609 10608 10609 10609 10609 10610 10611 10612 10613 10613 10613 10612 10611 10611 10610 10610 10610 10610 10609 10609 10609 10609 10609 10609 10609 10609 10609 10609 10609 10609 10609 10609 10609 10610 10610 10609 10609 10609 10608 10607 10606 10606 10604 10602 10602
10537 10540 10543 10547 10550 10554 10558 10560 10563 10565 10567 10569 10570 10571 10572 10576 10580 10582 10583 10583 10584 10584 10585 10587 10590 10592 10594 10596 10597 10597 10598 10599 10601 10602 10603 10604 10605 10607 10607 10606 10606 10606 10606 10606 10607 10607 10608 10609 10609 10609 10609 10608 10608 10607 10607 10607 10607 10607 10607 10606 10605 10606 10607 10607 10607 10606 10606 10606 10605 10606 10605 10605 10605 10605 10605 10605 10605 10604 10603 10602 10601 10600 10599 10596 10595
10534 10535 10538 10541 10545 10549 10552 10554 10556 10558 10560 10563 10565 10566 10568 10571 10574 10576 10577 10578 10579 10580 10581 10582 10584 10586 10588 10589 10590 10591 10592 10593 10595 10596 10598 10599 10600 10601 10603 10603 10603 10603 10603 10603 10603 10604 10604 10604 10605 10605 10605 10604 10604 10604 10603 10603 10603 10603 10603 10603 10602 10603 10603 10604 10604 10603 10603 10603 10602 10602 10602 10602 10601 10600 10600 10600 10599 10599 10598 10597 10596 10595 10594 10592 10590
10530 10531 10533 10536 10540 10543 10546 10548 10549 10552 10555 10558 10560 10562 10564 10567 10570 10571 10572 10573 10574 10575 10576 10578 10579 10581 10582 10583 10584 10585 10586 10587 10589 10591 10592 10594 10594 10595 10596 10598 10598 10599 10599 10599 10599 10600 10600 10600 10601 10601 10601 10600 10600 10600 10599 10599 10599 10599 10600 10600 10599 10599 10599 10599 10600 10600 10599 10599 10599 10598 10598 10598 10597 10596 10596 10596 10595 10594 10593 10592 10591 10590 10589 10587 10585
10526 10528 10529 10531 10534 10538 10541 10542 10543 10545 10548 10552 10555 10557 10559 10562 10565 10567 10567 10568 10569 10570 10571 10573 10574 10575 10576 10577 10578 10579 10580 10582 10583 10585 10587 10587 10588 10589 10589 10591 10592 10594 10594 10595 10595 10595 10596 10596 10596 10596 10596 10596 10596 10596 10596 10595 10595 10595 10595 10595 10596 10596 10595 10595 10595 10595 10595 10595 10595 10594 10594 10593 10593 10592 10592 10591 10590 10590 10589 10587 10586 10584 10583 10581 10580
10522 10523 10525 10526 10529 10532 10535 10537 10537 10539 10542 10545 10549 10552 10555 10558 10560 10562 10563 10563 10564 10565 10566 10567 10568 10569 10570 10572 10573 10574 10575 10576 10577 10579 10581 10581 10582 10582 10583 10583 10585 10587 10588 10589 10590 10590 10590 10591 10591 10591 10592 10592 10592 10592 10592 10591 10591 10590 10590 10590 10591 10591 10591 10591 10590 10590 10590 10590 10590 10589 10589 10588 10588 10588 10587 10586 10585 10584 10583 10582 10580 10579 10576 10574 10572
10516 10518 10520 10522 10524 10526 10529 10530 10532 10533 10535 10538 10542 10546 10549 10552 10554 10556 10557 10558 10559 10560 10560 10561 10563 10564 10565 10566 10567 10568 10569 10570 10571 10573 10574 10575 10575 10576 10577 10577 10578 10579 10581 10583 10583 10584 10584 10585 10586 10586 10587 10587 10587 10587 10587 10586 10586 10585 10585 10584 10584 10585 10586 10586 10585 10584 10584 10584 10584 10583 10583 10582 10582 10581 10581 10580 10579 10578 10577 10575 10574 10572 10570 10567 10565
10510 10512 10514 10516 10518 10520 10522 10524 10526 10528 10529 10531 10535 10539 10542 10543 10545 10548 10550 10551 10552 10553 10555 10556 10557 10559 10560 10560 10561 10562 10562 10563 10565 10566 10567 10569 10569 10570 10570 10571 10571 10572 10574 10576 10577 10577 10578 10579 10580 10580 10581 10581 10581 10582 10582 10581 10581 10580 10579 10578 10578 10579 10579 10579 10578 10578 10578 10578 10577 10576 10576 10576 10575 10574 10574 10573 10572 10571 10570 10568 10567 10565 10563 10560 10558
10503 10505 10507 10510 10512 10514 10516 10518 10520 10522 10523 10525 10528 10531 10533 10536 10539 10541 10543 10544 10545 10547 10548 10549 10551 10552 10554 10554 10555 10556 10557 10557 10558 10559 10560 10561 10562 10563 10564 10565 10565 10566 10567 10568 10569 10570 10571 10572 10573 10574 10574 10575 10575 10575 10575 10576 10575 10574 10573 10573 10572 10573 10572 10572 10572 10573 10572 10571 10570 10569 10569 10568 10568 10567 10566 10565 10564 10562 10562 10561 10559 10557 10556 10553 10550
10495 10498 10500 10503 10505 10508 10510 10512 10514 10515 10517 10519 10521 10523 10526 10529 10532 10534 10536 10537 10538 10540 10541 10542 10543 10546 10547 10548 10549 10550 10551 10552 10552 10552 10552 10553 10554 10556 10557 10558 10558 10559 10560 10561 10562 10563 10564 10565 10566 10566 10567 10567 10568 10568 10568 10569 10569 10569 10568 10567 10566 10566 10566 10565 10565 10567 10567 10565 10563 10563 10562 10561 10561 10559 10557 10557 10556 10553 10553 10553 10551 10549 10547 10545 10542
10488 10490 10492 10495 10498 10500 10502 10504 10506 10508 10510 10512 10514 10516 10518 10521 10524 10527 10529 10530 10531 10533 10535 10535 10536 10539 10541 10542 10543 10544 10545 10546 10546 10546 10546 10546 10546 10547 10549 10550 10551 10552 10553 10553 10554 10555 10556 10557 10558 10559 10559 10559 10560 10560 10561 10561 10562 10562 10561 10560 10559 10559 10559 10558 10558 10559 10559 10558 10557 10556 10556 10555 10554 10551 10549 10549 10548 10546 10544 10543 10542 10540 10538 10536 10533
10481 10483 10485 10487 10489 10492 10494 10496 10499 10501 10503 10505 10507 10509 10511 10514 10517 10519 10521 10523 10524 10526 10528 10529 10530 10533 10535 10536 10536 10537 10538 10539 10540 10540 10540 10540 10540 10540 10541 10542 10543 10544 10545 10545 10546 10547 10548 10549 10550 10551 10551 10552 10552 10552 10553 10553 10554 10554 10553 10553 10552 10552 10552 10552 10551 10551 10551 10550 10549 10548 10547 10547 10546 10544 10542 10540 10540 10538 10536 10535 10533 10531 10530 10527 10525
10473 10475 10477 10479 10481 10483 10486 10488 10490 10493 10495 10498 10500 10502 10504 10506 10509 10511 10513 10515 10518 10520 10521 10523 10525 10527 10528 10528 10529 10531 10532 10532 10533 10534 10534 10534 10533 10533 10534 10534 10536 10536 10537 10537 10538 10539 10540 10540 10541 10542 10543 10544 10544 10544 10544 10545 10545 10545 10545 10545 10545 10545 10545 10544 10544 10543 10543 10542 10541 10540 10539 10538 10537 10536 10535 10533 10531 10530 10528 10527 10525 10523 10520 10518 10516
10464 10466 10468 10471 10473 10475 10478 10480 10482 10485 10487 10490 10492 10494 10496 10499 10502 10504 10506 10508 10511 10513 10515 10517 10518 10519 10521 10522 10523 10524 10525 10526 10527 10528 10528 10528 10527 10527 10527 10528 10529 10529 10529 10529 10529 10530 10531 10532 10533 10534 10535 10536 10536 10536 10537 10537 10537 10537 10537 10537 10537 10537 10537 10536 10536 10535 10534 10534 10533 10532 10531 10530 10529 10528 10527 10525 10523 10521 10520 10518 10516 10513 10511 10508 10507
10455 10457 10459 10461 10464 10466 10469 10472 10474 10477 10479 10481 10483 10486 10488 10491 10494 10496 10499 10501 10503 10505 10507 10509 10511 10513 10515 10516 10516 10517 10517 10518 10520 10521 10521 10521 10521 10521 10521 10522 10522 10522 10521 10520 10519 10520 10521 10522 10523 10524 10525 10526 10527 10528 10528 10529 10529 10529 10529 10529 10529 10529 10529 10528 10527 10527 10526 10525 10524 10523 10522 10522 10521 10519 10517 10515 10514 10512 10510 10508 10506 10503 10500 10498 10496
10444 10447 10449 10452 10454 10456 10459 10462 10465 10468 10470 10472 10474 10477 10480 10482 10485 10488 10491 10494 10496 10497 10499 10501 10504 10505 10508 10509 10509 10509 10509 10510 10512 10513 10513 10514 10514 10514 10515 10515 10515 10514 10513 10512 10511 10510 10510 10510 10511 10512 10513 10514 10515 10517 10518 10520 10521 10520 10521 10521 10520 10520 10520 10519 10519 10518 10518 10517 10516 10515 10514 10513 10511 10509 10507 10505 10503 10501 10500 10498 10495 10492 10489 10487 10485
10434 10436 10439 10442 10444 10447 10449 10452 10455 10458 10461 10463 10466 10468 10470 10473 10476 10479 10482 10485 10488 10489 10491 10493 10495 10496 10498 10499 10499 10500 10501 10501 10502 10502 10503 10504 10505 10505 10506 10506 10506 10506 10505 10504 10502 10502 10501 10501 10502 10503 10503 10504 10504 10505 10507 10509 10511 10511 10511 10512 10512 10511 10511 10511 10510 10509 10508 10507 10506 10505 10504 10503 10501 10499 10497 10494 10492 10490 10488 10486 10484 10480 10478 10476 10474
10423 10426 10429 10431 10434 10437 10439 10442 10444 10447 10451 10454 10456 10459 10461 10464 10467 10470 10473 10476 10478 10481 10483 10484 10485 10486 10488 10489 10489 10491 10492 10492 10491 10490 10491 10493 10494 10496 10497 10497 10496 10496 10495 10494 10493 10493 10493 10493 10492 10492 10494 10495 10496 10496 10496 10498 10499 10500 10501 10501 10501 10501 10501 10500 10500 10499 10497 10496 10495 10494 10493 10491 10489 10487 10484 10482 10479 10477 10475 10473 10471 10469 10466 10464 10462
10413 10415 10418 10420 10423 10426 10429 10431 10433 10436 10439 10443 10446 10449 10451 10454 10457 10460 10463 10466 10469 10471 10474 10475 10476 10478 10479 10479 10480 10481 10480 10480 10479 10479 10480 10482 10483 10485 10487 10488 10487 10486 10486 10485 10485 10484 10485 10485 10482 10481 10483 10485 10486 10486 10487 10487 10487 10488 10488 10488 10488 10488 10488 10487 10486 10485 10485 10483 10482 10481 10480 10478 10476 10474 10472 10469 10467 10465 10463 10461 10459 10457 10454 10451 10448
10402 10404 10407 10410 10413 10416 10418 10420 10422 10425 10427 10431 10435 10438 10440 10443 10446 10449 10452 10455 10458 10461 10464 10466 10468 10469 10470 10470 10470 10470 10469 10468 10468 10468 10469 10471 10472 10473 10475 10477 10478 10478 10478 10477 10477 10476 10477 10477 10475 10473 10473 10475 10476 10476 10476 10477 10477 10476 10476 10476 10476 10476 10475 10474 10473 10472 10471 10470 10469 10468 10467 10465 10464 10462 10460 10459 10457 10455 10452 10450 10447 10444 10441 10437 10433
10391 10393 10395 10398 10401 10404 10407 10410 10412 10414 10416 10419 10422 10426 10429 10432 10435 10438 10441 10444 10448 10450 10453 10456 10458 10460 10461 10461 10461 10459 10459 10458 10458 10458 10459 10461 10463 10464 10465 10466 10468 10469 10468 10467 10468 10468 10468 10467 10467 10466 10465 10466 10467 10467 10467 10467 10466 10466 10466 10466 10466 10465 10464 10463 10462 10461 10460 10459 10458 10457 10456 10455 10453 10451 10450 10448 10446 10444 10441 10438 10435 10431 10427 10423 10420
10381 10382 10384 10386 10389 10392 10395 10398 10401 10403 10404 10407 10409 10413 10417 10420 10424 10426 10429 10432 10436 10439 10442 10445 10447 10449 10451 10452 10451 10450 10449 10449 10449 10449 10450 10451 10453 10455 10456 10457 10458 10459 10459 10458 10458 10458 10457 10456 10457 10457 10457 10457 10457 10458 10458 10457 10456 10455 10455 10455 10455 10454 10454 10453 10451 10450 10449 10448 10447 10446 10445 10443 10442 10440 10438 10436 10434 10431 10429 10426 10422 10418 10415 10411 10408
10370 10371 10373 10375 10377 10380 10383 10387 10390 10392 10393 10395 10397 10400 10404 10407 10411 10414 10417 10420 10423 10427 10430 10433 10436 10438 10440 10441 10441 10440 10440 10439 10440 10440 10440 10441 10442 10444 10445 10447 10448 10449 10449 10449 10449 10448 10447 10446 10447 10448 10448 10448 10448 10449 10449 10448 10446 10444 10444 10444 10443 10442 10442 10442 10440 10439 10438 10437 10435 10434 10433 10432 10430 10428 10426 10424 10421 10418 10415 10412 10409 10406 10403 10400 10398
10359 10360 10362 10364 10366 10369 10372 10375 10378 10381 10382 10384 10386 10388 10391 10395 10398 10401 10404 10408 10410 10413 10417 10420 10423 10426 10428 10429 10430 10430 10430 10430 10430 10430 10430 10431 10432 10433 10434 10435 10436 10437 10437 10438 10439 10439 10438 10438 10437 10438 10439 10439 10439 10440 10439 10438 10436 10434 10433 10433 10432 10431 10430 10430 10429 10428 10427 10425 10424 10422 10421 10419 10417 10415 10413 10411 10408 10406 10403 10400 10398 10396 10393 10390 10387
10348 10349 10351 10353 10355 10358 10361 10364 10366 10369 10371 10374 10376 10377 10379 10382 10385 10388 10391 10394 10397 10400 10403 10406 10409 10412 10415 10417 10418 10419 10419 10420 10420 10420 10420 10420 10421 10422 10423 10424 10424 10425 10425 10426 10427 10427 10428 10428 10428 10428 10429 10429 10429 10430 10430 10428 10427 10425 10423 10422 10420 10419 10418 10417 10417 10416 10414 10413 10411 10409 10407 10406 10404 10402 10400 10399 10397 10394 10392 10389 10386 10383 10381 10378 10375
10337 10338 10339 10341 10343 10346 10349 10352 10355 10357 10359 10361 10364 10366 10368 10370 10372 10375 10377 10380 10383 10387 10390 10392 10395 10398 10401 10403 10405 10406 10407 10408 10409 10410 10410 10410 10410 10411 10412 10413 10413 10414 10414 10413 10414 10414 10416 10417 10417 10417 10418 10417 10417 10417 10418 10417 10416 10415 10413 10412 10410 10408 10407 10405 10404 10403 10402 10400 10399 10397 10395 10393 10392 10390 10388 10386 10384 10381 10378 10375 10372 10370 10368 10366 10364
10326 10327 10328 10329 10331 10333 10336 10339 10342 10344 10346 10348 10350 10353 10355 10357 10360 10362 10364 10366 10369 10373 10376 10379 10381 10384 10387 10390 10392 10393 10395 10396 10398 10399 10399 10400 10400 10400 10401 10402 10403 10404 10403 10403 10402 10402 10403 10404 10405 10405 10405 10405 10404 10404 10404 10404 10403 10403 10402 10401 10399 10398 10396 10395 10393 10391 10390 10388 10387 10385 10383 10382 10380 10378 10376 10373 10371 10369 10366 10364 10362 10360 10358 10356 10354
10315 10316 10317 10317 10319 10321 10323 10326 10329 10331 10333 10335 10337 10339 10342 10345 10347 10349 10351 10353 10355 10358 10362 10365 10368 10371 10373 10376 10378 10380 10382 10383 10385 10387 10388 10388 10389 10390 10390 10391 10392 10393 10393 10393 10392 10392 10392 10393 10393 10394 10394 10393 10393 10392 10391 10391 10390 10390 10389 10388 10387 10386 10384 10383 10382 10380 10378 10377 10375 10374 10372 10370 10368 10367 10365 10363 10361 10359 10357 10355 10353 10351 10349 10346 10343
10304 10305 10305 10306 10308 10310 10312 10314 10316 10318 10320 10322 10324 10326 10328 10331 10334 10336 10339 10341 10343 10345 10349 10352 10355 10356 10359 10362 10364 10366 10368 10369 10371 10374 10375 10376 10377 10378 10379 10380 10380 10381 10381 10382 10382 10382 10382 10382 10382 10382 10382 10382 10382 10381 10381 10380 10379 10378 10377 10376 10375 10374 10373 10371 10370 10369 10368 10366 10365 10363 10362 10360 10359 10357 10356 10354 10352 10350 10348 10346 10344 10341 10339 10336 10333
10294 10295 10295 10295 10297 10299 10300 10301 10303 10305 10307 10309 10311 10313 10315 10318 10320 10323 10325 10328 10330 10333 10336 10339 10341 10343 10345 10348 10351 10353 10355 10356 10358 10359 10361 10363 10365 10366 10367 10368 10368 10369 10370 10370 10370 10371 10371 10371 10371 10371 10371 10371 10370 10370 10370 10369 10369 10368 10367 10366 10365 10363 10362 10361 10360 10359 10357 10356 10355 10353 10352 10350 10349 10347 10346 10344 10342 10340 10338 10336 10333 10331 10328 10324 10321
10285 10285 10285 10286 10287 10287 10288 10290 10291 10293 10295 10296 10298 10300 10302 10305 10307 10309 10312 10314 10317 10320 10323 10326 10329 10330 10332 10334 10337 10340 10342 10343 10345 10346 10347 10350 10352 10353 10354 10355 10357 10358 10358 10358 10359 10359 10360 10360 10360 10359 10359 10359 10359 10359 10358 10358 10358 10357 10356 10355 10354 10353 10352 10350 10349 10348 10347 10346 10345 10343 10342 10340 10339 10337 10336 10334 10332 10329 10327 10324 10322 10319 10316 10313 10310
10275 10276 10277 10277 10277 10277 10277 10278 10280 10281 10283 10284 10286 10288 10290 10292 10294 10297 10299 10302 10304 10307 10310 10313 10316 10318 10319 10322 10324 10327 10328 10329 10330 10332 10334 10337 10339 10340 10342 10343 10345 10346 10347 10347 10347 10348 10348 10349 10349 10348 10348 10347 10347 10347 10347 10346 10346 10345 10345 10344 10343 10342 10341 10340 10339 10338 10337 10336 10334 10333 10331 10329 10328 10326 10325 10323 10320 10318 10315 10312 10310 10307 10304 10302 10299
10265 10265 10267 10268 10268 10268 10268 10268 10268 10269 10271 10272 10274 10276 10278 10280 10282 10284 10287 10289 10291 10294 10297 10300 10303 10305 10307 10309 10312 10314 10315 10316 10316 10318 10321 10324 10326 10328 10329 10331 10332 10334 10335 10335 10336 10336 10337 10337 10338 10337 10337 10336 10336 10335 10335 10334 10334 10333 10333 10332 10331 10330 10329 10328 10328 10327 10326 10324 10323 10321 10320 10318 10316 10315 10313 10311 10309 10306 10303 10301 10299 10296 10293 10291 10288
10255 10254 10255 10256 10257 10258 10258 10258 10258 10258 10259 10260 10262 10264 10266 10268 10270 10272 10273 10275 10278 10280 10283 10286 10289 10292 10294 10296 10299 10301 10302 10303 10303 10305 10308 10311 10313 10315 10316 10318 10319 10321 10322 10323 10323 10324 10325 10325 10325 10326 10326 10326 10325 10325 10324 10324 10323 10322 10322 10321 10320 10319 10318 10317 10316 10315 10314 10313 10311 10310 10308 10307 10305 10304 10302 10300 10297 10295 10292 10290 10288 10285 10282 10279 10277
10246 10245 10244 10245 10246 10247 10248 10248 10248 10248 10248 10249 10250 10252 10254 10256 10257 10259 10260 10262 10264 10267 10270 10273 10275 10278 10280 10282 10285 10288 10289 10290 10291 10293 10295 10298 10299 10301 10302 10304 10306 10308 10309 10310 10311 10311 10312 10313 10313 10313 10314 10314 10314 10314 10313 10313 10312 10312 10311 10310 10309 10308 10307 10306 10305 10304 10303 10302 10300 10299 10297 10296 10295 10293 10291 10289 10287 10284 10282 10279 10277 10274 10271 10268 10265
10237 10236 10235 10235 10235 10235 10236 10237 10238 10238 10239 10239 10240 10241 10242 10244 10245 10246 10248 10249 10251 10254 10256 10259 10261 10264 10266 10268 10271 10274 10276 10277 10278 10279 10281 10284 10286 10288 10289 10291 10292 10294 10295 10297 10298 10299 10300 10300 10301 10301 10301 10302 10302 10302 10301 10301 10300 10300 10299 10299 10298 10297 10296 10295 10294 10292 10291 10290 10289 10288 10287 10285 10284 10282 10280 10278 10276 10274 10271 10269 10266 10264 10261 10257 10254
10229 10228 10227 10226 10226 10225 10225 10226 10226 10227 10228 10229 10230 10230 10231 10233 10234 10234 10235 10237 10239 10241 10243 10245 10248 10250 10252 10255 10257 10260 10262 10264 10265 10266 10268 10270 10272 10274 10276 10277 10279 10281 10282 10284 10285 10286 10287 10288 10288 10288 10289 10289 10289 10289 10289 10288 10288 10287 10287 10286 10285 10285 10284 10283 10282 10281 10280 10279 10278 10277 10275 10274 10273 10271 10269 10267 10265 10263 10260 10258 10255 10253 10249 10246 10243
10221 10220 10219 10218 10217 10217 10216 10216 10216 10216 10217 10218 10219 10220 10221 10222 10223 10223 10223 10225 10226 10228 10230 10232 10234 10236 10239 10241 10243 10246 10249 10251 10252 10253 10255 10256 10258 10260 10262 10264 10266 10268 10269 10271 10272 10273 10273 10274 10275 10275 10276 10276 10276 10276 10276 10275 10275 10275 10274 10273 10273 10272 10271 10270 10270 10269 10268 10267 10266 10265 10264 10263 10261 10259 10257 10255 10253 10251 10249 10246 10244 10241 10238 10234 10232
10213 10212 10210 10209 10209 10208 10208 10207 10207 10206 10207 10207 10208 10208 10210 10211 10212 10212 10212 10213 10214 10216 10218 10219 10221 10223 10225 10227 10229 10232 10235 10237 10239 10241 10242 10244 10245 10247 10249 10251 10253 10255 10256 10258 10259 10259 10260 10261 10262 10262 10262 10262 10262 10262 10262 10262 10262 10262 10261 10260 10260 10259 10258 10258 10257 10257 10256 10255 10254 10253 10252 10251 10249 10248 10246 10244 10241 10239 10237 10234 10232 10229 10226 10223 10220
10207 10204 10202 10201 10200 10199 10199 10199 10198 10197 10197 10197 10197 10197 10198 10199 10200 10201 10202 10203 10204 10205 10206 10208 10209 10211 10213 10215 10217 10219 10221 10224 10226 10228 10230 10232 10233 10235 10237 10238 10240 10242 10243 10245 10245 10246 10247 10248 10249 10249 10249 10249 10249 10249 10249 10248 10248 10248 10248 10247 10247 10246 10246 10245 10245 10244 10244 10243 10242 10241 10240 10239 10237 10235 10233 10232 10229 10228 10225 10222 10219 10217 10214 10211 10208
10202 10199 10196 10194 10192 10191 10190 10190 10190 10189 10187 10187 10187 10187 10187 10188 10189 10190 10191 10193 10194 10195 10196 10196 10198 10199 10201 10203 10205 10206 10208 10211 10213 10216 10218 10220 10221 10223 10224 10226 10227 10229 10230 10231 10232 10233 10234 10235 10235 10236 10236 10236 10236 10236 10236 10236 10236 10235 10235 10234 10234 10233 10233 10233 10232 10231 10231 10231 10230 10229 10228 10227 10225 10223 10221 10219 10217 10215 10213 10210 10208 10205 10203 10200 10196
10195 10193 10191 10188 10186 10184 10182 10181 10181 10181 10180 10178 10177 10177 10177 10177 10178 10179 10180 10182 10183 10185 10186 10186 10187 10188 10190 10192 10193 10195 10196 10198 10200 10202 10205 10207 10209 10210 10212 10213 10215 10216 10217 10218 10219 10220 10221 10221 10222 10222 10223 10223 10224 10224 10224 10224 10224 10223 10223 10223 10222 10221 10221 10220 10220 10219 10219 10219 10218 10217 10216 10214 10213 10211 10209 10207 10205 10203 10201 10198 10196 10193 10191 10188 10184
10188 10186 10184 10182 10180 10178 10175 10174 10173 10173 10172 10171 10170 10168 10168 10168 10168 10169 10170 10171 10173 10174 10175 10176 10176 10177 10179 10181 10182 10184 10185 10187 10188 10190 10192 10194 10196 10197 10199 10200 10202 10203 10204 10205 10206 10207 10208 10208 10209 10210 10210 10211 10211 10212 10212 10212 10212 10211 10211 10210 10210 10209 10209 10208 10208 10207 10207 10207 10206 10205 10204 10202 10201 10199 10197 10195 10193 10191 10189 10186 10183 10181 10178 10175 10172